| time (UTC) | temp F | wind direction | speed knots | gust knots | rain 1hr in | rain 24hr in | rain mn in | humidity % | barometer mb |
| 20260906030116 | 69 | 0.0 | 0.0 | 0.00 | 0.00 | 0.00 | 54 | 1013.8 | |
| 20260906025136 | 69 | 0.0 | 0.0 | 0.00 | 0.00 | 0.00 | 54 | 1013.7 | |
| 20260906024116 | 69 | 0.0 | 0.0 | 0.00 | 0.00 | 0.00 | 53 | 1013.5 | |
| 20260906023116 | 70 | 0.0 | 0.0 | 0.00 | 0.00 | 0.00 | 52 | 1013.5 | |
| 20260906022137 | 71 | 0.0 | 0.0 | 0.00 | 0.00 | 0.00 | 51 | 1013.4 | |
| 20260906021157 | 72 | 0.0 | 0.0 | 0.00 | 0.00 | 0.00 | 49 | 1013.3 | |
| 20260906020116 | 73 | 0.0 | 0.0 | 0.00 | 0.00 | 0.00 | 48 | 1013.3 | |
| 20260906015116 | 74 | 0.0 | 0.0 | 0.00 | 0.00 | 0.00 | 46 | 1013.2 | |
| 20260906014116 | 74 | 0.0 | 0.0 | 0.00 | 0.00 | 0.00 | 43 | 1013.2 | |
| 20260906013136 | 75 | 0.0 | 0.0 | 0.00 | 0.00 | 0.00 | 40 | 1013.2 | |
| 20260906012117 | 76 | 0.0 | 0.0 | 0.00 | 0.00 | 0.00 | 43 | 1013.1 | |
| 20260906011116 | 77 | 0.0 | 0.9 | 0.00 | 0.00 | 0.00 | 42 | 1013.1 | |
| 20260906005016 | 78 | 0.0 | 0.0 | 0.00 | 0.00 | 0.00 | 35 | 1013.0 | |
| 20260906004036 | 79 | 225 | 3.5 | 6.1 | 0.00 | 0.00 | 0.00 | 34 | 1013.0 |
| 20260906003018 | 79 | 225 | 1.7 | 6.1 | 0.00 | 0.00 | 0.00 | 34 | 1012.9 |
| 20260906002036 | 80 | 0.0 | 1.7 | 0.00 | 0.00 | 0.00 | 34 | 1012.8 | |
| 20260906001016 | 81 | 225 | 1.7 | 7.0 | 0.00 | 0.00 | 0.00 | 34 | 1012.8 |
| 20260906000016 | 81 | 225 | 0.9 | 5.2 | 0.00 | 0.00 | 0.00 | 36 | 1012.8 |
| 20260905235018 | 82 | 248 | 1.7 | 4.3 | 0.00 | 0.00 | 0.00 | 35 | 1012.8 |
| 20260905234016 | 82 | 0.0 | 0.9 | 0.00 | 0.00 | 0.00 | 36 | 1012.8 | |
| 20260905233018 | 82 | 0.0 | 0.0 | 0.00 | 0.00 | 0.00 | 36 | 1012.8 | |
| 20260905232056 | 82 | 270 | 2.6 | 6.1 | 0.00 | 0.00 | 0.00 | 36 | 1012.9 |
| 20260905231016 | 82 | 225 | 2.6 | 7.0 | 0.00 | 0.00 | 0.00 | 36 | 1013.0 |
| 20260905230137 | 82 | 248 | 0.9 | 4.3 | 0.00 | 0.00 | 0.00 | 36 | 1013.1 |
| 20260905225117 | 83 | 248 | 3.5 | 7.8 | 0.00 | 0.00 | 0.00 | 36 | 1013.3 |
| 20260905224119 | 83 | 248 | 1.7 | 7.0 | 0.00 | 0.00 | 0.00 | 37 | 1013.3 |
| 20260905223117 | 83 | 0.0 | 0.9 | 0.00 | 0.00 | 0.00 | 38 | 1013.3 | |
| 20260905222138 | 83 | 225 | 3.5 | 7.0 | 0.00 | 0.00 | 0.00 | 37 | 1013.3 |
| 20260905221117 | 84 | 270 | 2.6 | 6.1 | 0.00 | 0.00 | 0.00 | 38 | 1013.4 |
| 20260905220117 | 83 | 270 | 3.5 | 7.8 | 0.00 | 0.00 | 0.00 | 37 | 1013.4 |
| 20260905215117 | 83 | 0.0 | 0.0 | 0.00 | 0.00 | 0.00 | 36 | 1013.6 | |
| 20260905214117 | 84 | 0.0 | 0.0 | 0.00 | 0.00 | 0.00 | 37 | 1013.5 | |
| 20260905213117 | 84 | 225 | 2.6 | 8.7 | 0.00 | 0.00 | 0.00 | 37 | 1013.6 |
| 20260905212117 | 84 | 0.0 | 0.0 | 0.00 | 0.00 | 0.00 | 38 | 1013.7 | |
| 20260905211117 | 83 | 0.0 | 0.0 | 0.00 | 0.00 | 0.00 | 38 | 1013.7 | |
| 20260905210118 | 83 | 0.0 | 0.0 | 0.00 | 0.00 | 0.00 | 38 | 1013.7 | |
| 20260905205117 | 84 | 0.0 | 0.0 | 0.00 | 0.00 | 0.00 | 37 | 1013.8 | |
| 20260905204119 | 84 | 0.0 | 0.0 | 0.00 | 0.00 | 0.00 | 38 | 1013.8 | |
| 20260905203117 | 83 | 0.0 | 0.0 | 0.00 | 0.00 | 0.00 | 38 | 1013.8 | |
| 20260905202117 | 83 | 0.0 | 0.0 | 0.00 | 0.00 | 0.00 | 38 | 1013.9 | |
| 20260905201117 | 82 | 0.0 | 0.0 | 0.00 | 0.00 | 0.00 | 39 | 1014.1 | |
| 20260905200117 | 81 | 0.0 | 0.0 | 0.00 | 0.00 | 0.00 | 40 | 1014.2 | |
| 20260905195117 | 81 | 0.0 | 0.0 | 0.00 | 0.00 | 0.00 | 37 | 1014.2 | |
| 20260905194119 | 80 | 0.0 | 0.0 | 0.00 | 0.00 | 0.00 | 37 | 1014.4 | |
| 20260905193117 | 80 | 0.0 | 0.0 | 0.00 | 0.00 | 0.00 | 38 | 1014.4 | |
| 20260905192117 | 78 | 0.0 | 0.0 | 0.00 | 0.00 | 0.00 | 37 | 1014.6 | |
| 20260905191137 | 78 | 0.0 | 0.0 | 0.00 | 0.00 | 0.00 | 34 | 1014.7 | |
| 20260905185116 | 76 | 0.0 | 0.0 | 0.00 | 0.00 | 0.00 | 36 | 1014.8 | |
| 20260905184116 | 75 | 0.0 | 0.0 | 0.00 | 0.00 | 0.00 | 37 | 1014.9 | |
| 20260905183116 | 75 | 0.0 | 0.0 | 0.00 | 0.00 | 0.00 | 37 | 1015.0 | |
| 20260905182116 | 75 | 0.0 | 0.0 | 0.00 | 0.00 | 0.00 | 41 | 1015.2 | |
| 20260905181116 | 73 | 0.0 | 0.0 | 0.00 | 0.00 | 0.00 | 40 | 1015.2 | |
| 20260905180116 | 72 | 0.0 | 0.0 | 0.00 | 0.00 | 0.00 | 49 | 1015.2 | |
| 20260905175116 | 71 | 0.0 | 0.0 | 0.00 | 0.00 | 0.00 | 53 | 1015.3 | |
| 20260905174117 | 70 | 0.0 | 0.0 | 0.00 | 0.00 | 0.00 | 56 | 1015.3 | |
| 20260905173116 | 69 | 0.0 | 0.0 | 0.00 | 0.00 | 0.00 | 57 | 1015.4 | |
| 20260905172116 | 68 | 0.0 | 0.0 | 0.00 | 0.00 | 0.00 | 57 | 1015.5 | |
| 20260905171116 | 67 | 0.0 | 0.0 | 0.00 | 0.00 | 0.00 | 60 | 1015.5 | |
| 20260905170136 | 67 | 0.0 | 0.0 | 0.00 | 0.00 | 0.00 | 61 | 1015.5 | |
| 20260905165116 | 67 | 0.0 | 0.0 | 0.00 | 0.00 | 0.00 | 60 | 1015.4 | |
| 20260905164157 | 68 | 0.0 | 0.0 | 0.00 | 0.00 | 0.00 | 61 | 1015.3 | |
| 20260905163116 | 67 | 0.0 | 0.0 | 0.00 | 0.00 | 0.00 | 62 | 1015.2 | |
| 20260905162116 | 68 | 0.0 | 0.0 | 0.00 | 0.00 | 0.00 | 60 | 1015.4 | |
| 20260905161116 | 67 | 0.0 | 0.0 | 0.00 | 0.00 | 0.00 | 63 | 1015.5 | |
| 20260905160116 | 66 | 0.0 | 0.0 | 0.00 | 0.00 | 0.00 | 67 | 1015.5 | |
| 20260905155116 | 65 | 0.0 | 0.0 | 0.00 | 0.00 | 0.00 | 67 | 1015.4 | |
| 20260905154116 | 65 | 0.0 | 0.0 | 0.00 | 0.00 | 0.00 | 69 | 1015.4 | |
| 20260905153116 | 63 | 0.0 | 0.0 | 0.00 | 0.00 | 0.00 | 73 | 1015.3 | |
| 20260905152118 | 61 | 0.0 | 0.0 | 0.00 | 0.00 | 0.00 | 77 | 1015.2 | |
| 20260905151136 | 60 | 0.0 | 0.0 | 0.00 | 0.00 | 0.00 | 77 | 1015.2 | |
| 20260905150116 | 60 | 0.0 | 0.0 | 0.00 | 0.00 | 0.00 | 78 | 1015.3 | |
| 20260905145116 | 59 | 0.0 | 0.0 | 0.00 | 0.00 | 0.00 | 79 | 1015.3 | |
| 20260905144136 | 59 | 0.0 | 0.0 | 0.00 | 0.00 | 0.00 | 80 | 1015.2 | |
| 20260905143116 | 59 | 0.0 | 0.0 | 0.00 | 0.00 | 0.00 | 80 | 1015.2 | |
| 20260905142116 | 59 | 0.0 | 0.0 | 0.00 | 0.00 | 0.00 | 80 | 1015.1 | |
| 20260905141116 | 59 | 0.0 | 0.0 | 0.00 | 0.00 | 0.00 | 80 | 1015.0 | |
| 20260905140116 | 59 | 0.0 | 0.0 | 0.00 | 0.00 | 0.00 | 80 | 1014.9 | |
| 20260905135116 | 59 | 0.0 | 0.0 | 0.00 | 0.00 | 0.00 | 80 | 1014.9 | |
| 20260905134116 | 59 | 0.0 | 0.0 | 0.00 | 0.00 | 0.00 | 80 | 1014.9 | |
| 20260905133117 | 59 | 0.0 | 0.0 | 0.00 | 0.00 | 0.00 | 80 | 1014.9 | |
| 20260905132116 | 59 | 0.0 | 0.0 | 0.00 | 0.00 | 0.00 | 80 | 1014.8 | |
| 20260905131138 | 59 | 0.0 | 0.0 | 0.00 | 0.00 | 0.00 | 80 | 1014.8 | |
| 20260905125117 | 59 | 0.0 | 0.0 | 0.00 | 0.00 | 0.00 | 80 | 1014.8 | |
| 20260905124217 | 59 | 0.0 | 0.0 | 0.00 | 0.01 | 0.00 | 79 | 1014.8 | |
| 20260905123117 | 59 | 0.0 | 0.0 | 0.00 | 0.01 | 0.00 | 79 | 1014.8 | |
| 20260905122137 | 60 | 0.0 | 0.0 | 0.00 | 0.01 | 0.00 | 79 | 1014.8 | |
| 20260905121117 | 60 | 0.0 | 0.0 | 0.00 | 0.01 | 0.00 | 79 | 1014.8 | |
| 20260905120144 | 60 | 0.0 | 0.0 | 0.00 | 0.01 | 0.00 | 79 | 1014.9 | |
| 20260905115119 | 60 | 0.0 | 0.0 | 0.00 | 0.01 | 0.00 | 79 | 1014.9 | |
| 20260905114117 | 60 | 0.0 | 0.0 | 0.00 | 0.01 | 0.00 | 79 | 1014.8 | |
| 20260905113117 | 60 | 0.0 | 0.0 | 0.00 | 0.01 | 0.00 | 79 | 1014.9 | |
| 20260905112117 | 60 | 0.0 | 0.0 | 0.00 | 0.01 | 0.00 | 78 | 1015.0 | |
| 20260905111117 | 60 | 0.0 | 0.0 | 0.00 | 0.01 | 0.00 | 78 | 1015.0 | |
| 20260905110136 | 60 | 0.0 | 0.0 | 0.00 | 0.01 | 0.00 | 78 | 1015.0 | |
| 20260905105116 | 60 | 0.0 | 0.0 | 0.00 | 0.01 | 0.00 | 78 | 1015.0 | |
| 20260905104116 | 60 | 0.0 | 0.0 | 0.00 | 0.01 | 0.00 | 78 | 1014.9 | |
| 20260905103116 | 60 | 0.0 | 0.0 | 0.00 | 0.02 | 0.00 | 78 | 1015.0 | |
| 20260905102116 | 60 | 0.0 | 0.0 | 0.00 | 0.02 | 0.00 | 78 | 1015.1 | |
| 20260905101116 | 60 | 0.0 | 0.0 | 0.00 | 0.03 | 0.00 | 77 | 1015.2 | |
| 20260905100116 | 60 | 0.0 | 0.0 | 0.00 | 0.04 | 0.00 | 77 | 1015.1 | |
| 20260905095116 | 61 | 0.0 | 0.0 | 0.00 | 0.04 | 0.00 | 77 | 1015.1 | |
| 20260905094116 | 61 | 0.0 | 0.0 | 0.00 | 0.04 | 0.00 | 76 | 1015.1 | |
| 20260905093116 | 61 | 0.0 | 0.0 | 0.00 | 0.04 | 0.00 | 76 | 1015.2 | |
| 20260905092115 | 61 | 0.0 | 0.0 | 0.00 | 0.04 | 0.00 | 75 | 1015.2 | |
| 20260905091116 | 61 | 0.0 | 0.0 | 0.00 | 0.04 | 0.00 | 74 | 1015.2 | |
| 20260905090116 | 61 | 0.0 | 0.0 | 0.00 | 0.05 | 0.00 | 73 | 1015.3 | |
| 20260905085137 | 61 | 0.0 | 0.0 | 0.00 | 0.05 | 0.00 | 73 | 1015.3 | |
| 20260905084116 | 61 | 0.0 | 0.0 | 0.00 | 0.05 | 0.00 | 72 | 1015.3 | |
| 20260905083116 | 61 | 0.0 | 0.0 | 0.00 | 0.05 | 0.00 | 72 | 1015.4 | |
| 20260905082136 | 61 | 0.0 | 0.0 | 0.00 | 0.05 | 0.00 | 72 | 1015.4 | |
| 20260905081116 | 61 | 0.0 | 0.0 | 0.00 | 0.05 | 0.00 | 72 | 1015.4 | |
| 20260905080116 | 61 | 0.0 | 0.0 | 0.00 | 0.05 | 0.00 | 72 | 1015.5 | |
| 20260905075116 | 61 | 0.0 | 0.0 | 0.00 | 0.05 | 0.00 | 71 | 1015.5 | |
| 20260905074115 | 61 | 0.0 | 0.0 | 0.00 | 0.05 | 0.00 | 71 | 1015.5 | |
| 20260905073136 | 61 | 0.0 | 0.0 | 0.00 | 0.05 | 0.00 | 71 | 1015.4 | |
| 20260905072116 | 61 | 0.0 | 0.0 | 0.00 | 0.05 | 0.00 | 72 | 1015.3 | |
| 20260905071116 | 62 | 0.0 | 0.0 | 0.00 | 0.05 | 0.00 | 72 | 1015.3 | |
| 20260905065116 | 62 | 0.0 | 0.0 | 0.00 | 0.05 | 0.05 | 71 | 1015.1 | |
| 20260905064116 | 62 | 0.0 | 0.0 | 0.00 | 0.05 | 0.05 | 71 | 1015.1 | |
| 20260905063116 | 62 | 0.0 | 0.0 | 0.00 | 0.05 | 0.05 | 71 | 1015.0 | |
| 20260905062136 | 62 | 0.0 | 0.0 | 0.00 | 0.05 | 0.05 | 72 | 1015.0 | |
| 20260905061116 | 62 | 0.0 | 0.0 | 0.00 | 0.05 | 0.05 | 71 | 1015.0 | |
| 20260905060156 | 62 | 0.0 | 0.0 | 0.00 | 0.05 | 0.05 | 71 | 1015.1 | |
| 20260905055116 | 62 | 0.0 | 0.0 | 0.00 | 0.05 | 0.05 | 70 | 1014.9 | |
| 20260905054136 | 62 | 0.0 | 0.0 | 0.00 | 0.05 | 0.05 | 70 | 1014.8 | |
| 20260905053116 | 62 | 0.0 | 0.0 | 0.00 | 0.05 | 0.05 | 69 | 1014.7 | |
| 20260905052116 | 63 | 0.0 | 0.0 | 0.00 | 0.05 | 0.05 | 68 | 1014.7 | |
| 20260905051116 | 63 | 0.0 | 0.0 | 0.00 | 0.05 | 0.05 | 68 | 1014.8 | |
| 20260905050135 | 63 | 0.0 | 0.0 | 0.00 | 0.05 | 0.05 | 68 | 1014.7 | |
| 20260905045117 | 62 | 0.0 | 0.0 | 0.00 | 0.05 | 0.05 | 69 | 1014.8 | |
| 20260905044117 | 62 | 0.0 | 0.0 | 0.00 | 0.05 | 0.05 | 67 | 1014.8 | |
| 20260905043137 | 62 | 0.0 | 0.0 | 0.00 | 0.05 | 0.05 | 65 | 1014.6 | |
| 20260905042117 | 63 | 0.0 | 0.0 | 0.00 | 0.05 | 0.05 | 65 | 1014.5 | |
| 20260905041117 | 63 | 0.0 | 0.0 | 0.00 | 0.05 | 0.05 | 62 | 1014.4 | |
| 20260905040118 | 64 | 0.0 | 0.0 | 0.00 | 0.05 | 0.05 | 61 | 1014.5 | |
| 20260905035117 | 65 | 0.0 | 0.0 | 0.00 | 0.05 | 0.05 | 60 | 1014.3 | |
| 20260905034117 | 65 | 0.0 | 0.0 | 0.00 | 0.05 | 0.05 | 59 | 1014.2 | |
| 20260905033117 | 66 | 0.0 | 0.0 | 0.00 | 0.05 | 0.05 | 58 | 1014.0 | |
| 20260905032120 | 66 | 0.0 | 0.0 | 0.00 | 0.05 | 0.05 | 57 | 1013.9 | |
| 20260905031117 | 67 | 0.0 | 0.0 | 0.00 | 0.05 | 0.05 | 55 | 1013.8 |